This is the latest recevied weather packets stored in our database for station/object W4DEX-2. If no packets are shown the sender has not sent any weather packets the latest 10 day(s).
| Time | Temp. | Humidity | Pressure | Rain* | Wind** | Luminosity | Snow |
|---|---|---|---|---|---|---|---|
| 1777941002 | 20° C | 29% | 1013.8 hPa | 0 mm | 5.36 m/s, 175° | - | - |
| 1777940402 | 20.56° C | 29% | 1013.7 hPa | 0 mm | 4.92 m/s, 178° | - | - |
| 1777940102 | 20.56° C | 28% | 1013.6 hPa | 0 mm | 5.36 m/s, 177° | - | - |
| 1777939802 | 21.11° C | 28% | 1013.7 hPa | 0 mm | 4.92 m/s, 176° | - | - |
| 1777939502 | 21.11° C | 28% | 1013.5 hPa | 0 mm | 4.92 m/s, 177° | - | - |
| 1777939202 | 21.11° C | 28% | 1013.5 hPa | 0 mm | 4.92 m/s, 176° | - | - |
| 1777938903 | 21.11° C | 27% | 1013.3 hPa | 0 mm | 4.92 m/s, 177° | - | - |
| 1777938602 | 21.11° C | 27% | 1013.2 hPa | 0 mm | 4.92 m/s, 176° | - | - |
| 1777938302 | 21.67° C | 26% | 1013.2 hPa | 0 mm | 5.36 m/s, 176° | - | - |
| 1777937703 | 21.67° C | 25% | 1013.2 hPa | 0 mm | 4.92 m/s, 176° | - | - |
| 1777937403 | 22.22° C | 25% | 1012.9 hPa | 0 mm | 4.92 m/s, 177° | - | - |
| 1777937104 | 22.22° C | 24% | 1013 hPa | 0 mm | 4.92 m/s, 178° | - | - |
| 1777936802 | 22.22° C | 23% | 1013.2 hPa | 0 mm | 4.92 m/s, 180° | - | - |
| 1777936202 | 23.33° C | 22% | 1013 hPa | 0 mm | 4.92 m/s, 176° | - | - |
| 1777935902 | 23.33° C | 21% | 1013.2 hPa | 0 mm | 4.47 m/s, 178° | - | - |
| 1777933802 | 25° C | 17% | 1013.2 hPa | 0 mm | 4.92 m/s, 182° | - | - |
| 1777933504 | 25° C | 18% | 1013.1 hPa | 0 mm | 4.92 m/s, 181° | - | - |
| 1777933209 | 25° C | 19% | 1013 hPa | 0 mm | 4.92 m/s, 180° | - | - |
| 1777932302 | 25.56° C | 18% | 1013 hPa | 0 mm | 5.36 m/s, 182° | - | - |
| 1777932002 | 25.56° C | 18% | 1013.1 hPa | 0 mm | 4.92 m/s, 180° | - | - |
| 1777931703 | 25.56° C | 18% | 1013 hPa | 0 mm | 4.92 m/s, 177° | - | - |
| 1777931402 | 26.11° C | 18% | 1013.1 hPa | 0 mm | 4.92 m/s, 171° | - | - |
| 1777931109 | 25.56° C | 18% | 1013 hPa | 0 mm | 4.92 m/s, 177° | - | - |
| 1777930505 | 26.11° C | 18% | 1013 hPa | 0 mm | 5.36 m/s, 172° | - | - |
| 1777930202 | 26.11° C | 19% | 1013.2 hPa | 0 mm | 4.47 m/s, 179° | - | - |
* Rain latest hour (hover to see other rain measurements)
** Current wind speed in m/s (hover to see current wind gust speed)